Regional Weather Roundup
Issued by NWS

Home | Current Version | Previous Version | Text Only | Print | Product List | Glossary On
Versions: 1 2 3 4 5 6 7 8 9 10 11 12 13 14 15 16 17 18 19 20 21 22 23 24 25 26 27 28 29 30 31 32 33 34 35 36 37 38 39 40 41 42 43 44 45 46 47 48 49 50
000
ASUS43 KMKX 300021
RWRWI

WISCONSIN REGIONAL WEATHER ROUNDUP
NATIONAL WEATHER SERVICE MILWAUKEE/SULLIVAN WI
700 PM CDT WED MAR 29 2017

NOTE: "FAIR" INDICATES FEW OR NO CLOUDS BELOW 12,000 FEET WITH NO
SIGNIFICANT WEATHER AND/OR OBSTRUCTIONS TO VISIBILITY.

WIZ001-002-006>008-014>016-023>028-300100-
NORTHWEST WISCONSIN

CITY           SKY/WX    TMP DP  RH WIND       PRES   REMARKS
SUPERIOR ARPT  CLOUDY    34  32  92 E13       30.24F WCI  25
6HR MIN TEMP:  34; 6HR MAX TEMP:  36;

ASHLAND        MOCLDY    35  29  78 NE13      30.22F WCI  26
6HR MIN TEMP:  35; 6HR MAX TEMP:  40;

HAYWARD        CLOUDY    48  33  56 NE8       30.17F
6HR MIN TEMP:  48; 6HR MAX TEMP:  53;

SIREN          CLOUDY    49  32  51 CALM      30.17S
6HR MIN TEMP:  49; 6HR MAX TEMP:  52;

CUMBERLAND     CLOUDY    45  32  61 SE3       30.18R
RICE LAKE      CLOUDY    46  33  59 CALM      30.19S
6HR MIN TEMP:  46; 6HR MAX TEMP:  50;

CHETEK         CLOUDY    46  35  65 SE10      30.19R
6HR MIN TEMP:  46; 6HR MAX TEMP:  48;

LADYSMITH      CLOUDY    47  32  57 CALM      30.20S
6HR MIN TEMP:  47; 6HR MAX TEMP:  51;

EAU CLAIRE     CLOUDY    47  35  63 S10       30.18R
6HR MIN TEMP:  47; 6HR MAX TEMP:  50;

MENOMONIE      CLOUDY    46  36  66 SE8       30.18S
6HR MIN TEMP:  46; 6HR MAX TEMP:  49;

NEW RICHMOND   CLOUDY    46  32  59 CALM      30.17S
6HR MIN TEMP:  46; 6HR MAX TEMP:  49;

OSCEOLA        CLOUDY    46  35  63 E3        30.20R
6HR MIN TEMP:  46; 6HR MAX TEMP:  51;

$$

WIZ003>005-009-010-017-018-300100-
NORTH CENTRAL WISCONSIN

CITY           SKY/WX    TMP DP  RH WIND       PRES   REMARKS
MANITOWISH WTR CLOUDY    44  29  55 CALM      30.18F
6HR MIN TEMP:  44; 6HR MAX TEMP:  47;

ARBOR VITAE    CLOUDY    44  29  55 SE3       30.19S
6HR MIN TEMP:  44; 6HR MAX TEMP:  49;

WOODRUFF       CLOUDY    44  29  55 SE3       30.19S
6HR MIN TEMP:  44; 6HR MAX TEMP:  49;

RHINELANDER    CLOUDY    44  29  55 SE7       30.20F
6HR MIN TEMP:  44; 6HR MAX TEMP:  49;

EAGLE RIVER    CLOUDY    42  26  52 E5        30.20S
6HR MIN TEMP:  42; 6HR MAX TEMP:  47;

LAND O LAKES   CLOUDY    43  27  54 E3        30.22F
6HR MIN TEMP:  43; 6HR MAX TEMP:  47;

PHILLIPS       CLOUDY    45  31  59 SE6       30.18S
6HR MIN TEMP:  45; 6HR MAX TEMP:  50;

TOMAHAWK       CLOUDY    42  31  65 CALM      30.20S
6HR MIN TEMP:  42; 6HR MAX TEMP:  47;

MEDFORD        CLOUDY    42  30  62 E8        30.18F
6HR MIN TEMP:  42; 6HR MAX TEMP:  46;

MERRILL        CLOUDY    43  31  61 E6        30.21S
6HR MIN TEMP:  43; 6HR MAX TEMP:  47;

$$

WIZ029-030-035-036-043>047-300100-
CENTRAL WISCONSIN

CITY           SKY/WX    TMP DP  RH WIND       PRES   REMARKS
WAUSAU         CLOUDY    42  29  59 SE9       30.19S
6HR MIN TEMP:  42; 6HR MAX TEMP:  47;

MOSINEE        MOCLDY    41  28  60 E9        30.21R
MARSHFIELD     CLOUDY    42  31  64 E7        30.18F
6HR MIN TEMP:  42; 6HR MAX TEMP:  47;

STEVENS POINT  DRIZZLE   39  28  63 E8        30.21F WCI  34
6HR MIN TEMP:  39; 6HR MAX TEMP:  44;

WAUPACA        CLOUDY    43  31  64 E8        30.23F
6HR MIN TEMP:  43; 6HR MAX TEMP:  48;

WAUTOMA        CLOUDY    42  30  62 NE14      30.21F
6HR MIN TEMP:  42; 6HR MAX TEMP:  45;

WISC RAPIDS    LGT RAIN  40  36  86 E7        30.21F
6HR MIN TEMP:  40; 6HR MAX TEMP:  47; 6HR PCP:  0.02;

CAMP DOUGLAS   CLOUDY    43  37  81 E8        30.17F
                                      6HR PCP: TRACE;

$$

WIZ011>013-019>022-031-037>040-048>050-300100-
NORTHEAST WISCONSIN

CITY           SKY/WX    TMP DP  RH WIND       PRES   REMARKS
ANTIGO         CLOUDY    39  29  68 E8        30.21S WCI  34
6HR MIN TEMP:  39; 6HR MAX TEMP:  44;

SHAWANO        CLOUDY    42  32  68 NE5       30.26R
6HR MIN TEMP:  42; 6HR MAX TEMP:  46;

OCONTO         CLOUDY    38  26  64 NE6       30.25F WCI  33
6HR MIN TEMP:  38; 6HR MAX TEMP:  42;

STURGEON BAY   CLOUDY    37  27  67 NE8       30.21F WCI  31
6HR MIN TEMP:  37; 6HR MAX TEMP:  42;

GREEN BAY      CLOUDY    39  30  70 NE9       30.24R WCI  33
6HR MIN TEMP:  39; 6HR MAX TEMP:  42;

MANITOWOC      CLOUDY    37  32  82 N8        30.24R WCI  31
6HR MIN TEMP:  37; 6HR MAX TEMP:  39;

APPLETON       CLOUDY    39  28  65 NE8       30.22R WCI  34
CLINTONVILLE   CLOUDY    41  28  60 NE7       30.24R
OSHKOSH        CLOUDY    41  30  65 NE10      30.21R
6HR MIN TEMP:  40; 6HR MAX TEMP:  45;

$$

WIZ032>034-041-042-053>061-300100-
SOUTHWEST WISCONSIN

CITY           SKY/WX    TMP DP  RH WIND       PRES   REMARKS
LA CROSSE      LGT RAIN  45  39  79 E9        30.16R
6HR MIN TEMP:  45; 6HR MAX TEMP:  48; 6HR PCP: TRACE;

SPARTA         CLOUDY    42  39  88 E6        30.18S
6HR MIN TEMP:  42; 6HR MAX TEMP:  44;

VIROQUA        CLOUDY    42  38  86 E15G21    30.13S
6HR MIN TEMP:  42; 6HR MAX TEMP:  45;

BOSCOBEL       LGT RAIN  43  38  82 E10G21    30.13F
6HR MIN TEMP:  43; 6HR MAX TEMP:  49; 6HR PCP:  0.12;

PRAIRIE DU CHI RAIN      40  39  97 E17G25    30.09F WCI  31
6HR MIN TEMP:  40; 6HR MAX TEMP:  47; 6HR PCP:  0.28;

PLATTEVILLE    MOCLDY    41  38  91 NE25G32   30.08F
6HR MIN TEMP:  41; 6HR MAX TEMP:  47; 6HR PCP:  0.02;

$$

WIZ056-057-062-063-064-067-068-300100-
SOUTH CENTRAL WISCONSIN

CITY           SKY/WX    TMP DP  RH WIND       PRES   REMARKS
REEDSBURG      CLOUDY    44  38  82 NE7       30.17R
6HR MIN TEMP:  42; 6HR MAX TEMP:  45;

BARABOO/DELLS  CLOUDY    42  36  79 NE10      30.17R
6HR MIN TEMP:  42; 6HR MAX TEMP:  46;

LONE ROCK      LGT RAIN  45  35  68 E23G30    30.14F
6HR MIN TEMP:  44; 6HR MAX TEMP:  48; 6HR PCP:  0.02;

MINERAL POINT  RAIN      41  37  87 E16G28    30.10F
MADISON        LGT RAIN  43  36  76 NE9       30.18R
6HR MIN TEMP:  43; 6HR MAX TEMP:  48; 6HR PCP: TRACE;

MIDDLETON      CLOUDY    45  37  76 NE12      30.17R
6HR MIN TEMP:  45; 6HR MAX TEMP:  49;

WATERTOWN      CLOUDY    43  34  69 NE10      30.16R
6HR MIN TEMP:  43; 6HR MAX TEMP:  48;

MONROE         LGT RAIN  41  36  81 NE20G26   30.09F
JANESVILLE     RAIN      43  37  81 NE12      30.14R
$$

WIZ051-052-058>065-066-070>072-300100-
SOUTHEAST WISCONSIN

CITY           SKY/WX    TMP DP  RH WIND       PRES   REMARKS
MILWAUKEE      CLOUDY    39  34  82 N18G24    30.16R WCI  30
6HR MIN TEMP:  38; 6HR MAX TEMP:  44;

WAUKESHA       CLOUDY    37  28  70 NE12G18   30.16R WCI  30
MILWAUKEE/TIMM CLOUDY    37  32  81 NE10      30.17S WCI  30
RACINE         CLOUDY    39  33  79 N14G23    30.15S WCI  31
6HR MIN TEMP:  39; 6HR MAX TEMP:  45;

KENOSHA        LGT RAIN  41  34  76 N13       30.13S
6HR MIN TEMP:  41; 6HR MAX TEMP:  45; 6HR PCP:  0.01;

FOND DU LAC    CLOUDY    41  29  62 NE14      30.21R
6HR MIN TEMP:  41; 6HR MAX TEMP:  48;

SHEBOYGAN      CLOUDY    38  31  76 NE16G25   30.20S WCI  29
6HR MIN TEMP:  37; 6HR MAX TEMP:  42;

WEST BEND      CLOUDY    37  32  81 NE9       30.18S WCI  31
JUNEAU         CLOUDY    41  30  64 NE8       30.19S
6HR MIN TEMP:  41; 6HR MAX TEMP:  46;

$$

LSZ147-162-300100-
LAKE SUPERIOR

STATION/POSITION TIME  TEMP    WIND        PRES    WAVE
                       AIR SEA DIR/SP/G            HT/PER
                 (UTC) (F)     (DEG/KT/KT) (MB)    (FT/S)
DEVILS ISLAND    0000   34      60/ 19/ 23 1024.8F
PORT WING        2330   35      40/ 18/ 22 1024.0S
SAXON HARBOR     2340   35     290/  4/  5 1023.0F
$$

LMZ867-665-643>646-300100-
LAKE MICHIGAN

STATION/POSITION TIME  TEMP    WIND        PRES    WAVE
                       AIR SEA DIR/SP/G            HT/PER
                 (UTC) (F)     (DEG/KT/KT) (MB)    (FT/S)
CHAMBERS ISLAND  2340   34      20/  6/  8


USA.gov is the U.S. government's official web portal to all federal, state and local government web resources and services.